Location: Spring Creek
(38.2870°N, 100.2160°W)
Time: 09:16:09
(UTC+00:00)

AQUA - Pass Details

Date: 08 May 2021
Orbit: 702 x 703 km, 98.2° (Epoch: 22 June)

Event Time Altitude Azimuth Distance (km) Brightness Sun altitude
Rises 08:41:12 0° 11° (N) 3,098 8.2 -27.4°
Reaches altitude 10° 08:43:28 10° 10° (N) 2,176 7.2 -27.1°
Enters shadow 08:47:47 71° 339° (NNW) 745 3.9 -26.6°
